map of OSI home
OSI - Airport
Location
City:  Osijek, Virovitica-Podravina, Croatia
ICAO:LDOS
IATA:OSI

Details
Type:Airport (Aerodrome, Airfield)
Latitude:4527'46"N (45.462667)
Longitude:1848'37"E (18.810156)
Datum:WGS 1984
Elevation:290 ft (88 m)
Variation:4.74E (WMM2015v2 magnetic declination)
0.14 annual change
Runways:1
Longest:8199 × 148 ft (2499 × 45 m), paved

Time
Time Zone:UTC+1 (DST+2)
Local Time:

Weather
METAR:LDOS 041400Z 34010KT 9999 SCT045 05/01 Q1028
TAF:LDOS 041125Z 0412/0512 32008KT CAVOK TX07/0413Z TN01/0504Z
BECMG 0420/0422 02006KT
TEMPO 0503/0509 4000 -SN BKN010 OVC030 PROB30
TEMPO 0503/0506 4000 -SG

Related Locations
Nearby:
Farthest:CHT: 11680 mi / 18797 km
Waitangi [Tuuta], CIT, NZ

Find:

   beyond  
but within

Other Information
Maps:
NOTAMs:
Links:
Sources:

  
  • flag of Croatia
  • flag of Virovitica-Podravina
  

Sectional Chart

Flight Planning
at skyvector.com

Satellite Image

Google Maps Satellite view

 

Copyright © 2004-2019 Karl L. Swartz. All rights reserved.
The Great Circle Mapper name and logo are trademarks of the Great Circle Mapper.
All other trademarks mentioned herein belong to their respective owners.
Please see credits for attibutions and further copyright information.

  Follow gcmap on Facebook Follow gcmap on Twitter GCmap on LinkedIn

hCard Microformat

Geo Microformat